Domov               UVHVVR             MKGP            O straneh              
ZDRAVSTVENO VARSTVO RASTLIN
  MREŽA AGROMET. POSTAJ
 ► PROGNOSTIČNA OBVESTILA
AGROMETEOROLOŠKI PODATKI -
ARSO
OBVLADOVANJE TVEGANJ ZARADI
NEUGODNIH VREMENSKIH RAZMER
  ► NARAVNE NESREČE
  ► SUŠA/MOČA
  ► NAMAKANJE
  ► ŽLED (gozdarstvo)
KARTOGRAFSKI PRIKAZI
SPLETNE POVEZAVE
PROJEKTI IN PUBLIKACIJE

AGROMETEOROLOŠKA MREŽA: VREMENSKE POSTAJE IN FENOLOŠKA OPAZOVANJA

Pregled podatkov za lokacijo Višnjevik, meteorološka postaja 857246

Pregled senzorjev na lokaciji

ID Ime Zadnja
vrednost
Datum
zadnje
spremembe
Tip
senzorja
3904 Omočenost lista (U) 0 U 22.3.2019 23:14 A730WET
3906 Padavine (mm) 0 mm 22.3.2019 23:15 Rain-O-Matic
3903 Relativna vlaga 2 m (% RH) 32,17 % RH 22.3.2019 23:14 50YA
3902 Temperatura 2 m (°C) 15,21 °C 22.3.2019 23:15 50YA

Pregled podatkov zadnjih 24 ur

Zap.
št.
Datum in čas Višnjevik
Omočenost
lista
Padavine Relativna
vlaga
2
m
Temperatura
2
m
1 22.3.2019 23:30
2 22.3.2019 23:00
3 22.3.2019 22:30
4 22.3.2019 22:00 0 0 31 15,7
5 22.3.2019 21:30 0 0 32,3 15,1
6 22.3.2019 21:00 0 0 33,2 14,7
7 22.3.2019 20:30 0 0 31,6 15,4
8 22.3.2019 20:00 0 0 30,3 15,9
9 22.3.2019 19:30 0 0 29,7 16,1
10 22.3.2019 19:00 0 0 30,7 16
11 22.3.2019 18:30 0 0 29,8 16,6
12 22.3.2019 18:00 0 0 27,4 17,4
13 22.3.2019 17:30 0 0 22,5 18,3
14 22.3.2019 17:00 0 0 19,5 19
15 22.3.2019 16:30 0 0 19,3 19,4
16 22.3.2019 16:00 0 0 20 20,5
17 22.3.2019 15:30 0 0 21,9 20,2
18 22.3.2019 15:00 0 0 22,4 20,6
19 22.3.2019 14:30 0 0 23 20,6
20 22.3.2019 14:00 0 0 23,5 20,4
21 22.3.2019 13:30 0 0 25,2 20,1
22 22.3.2019 13:00 0 0 26,8 19,6
23 22.3.2019 12:30 0 0 27,4 19
24 22.3.2019 12:00 0 0 25,2 19,2
25 22.3.2019 11:30 0 0 25,2 18,4
26 22.3.2019 11:00 0 0 27,4 17,9
27 22.3.2019 10:30 0 0 26,8 17,2
28 22.3.2019 10:00 0 0 28,2 16,8
29 22.3.2019 09:30 0 0 31,1 15,6
30 22.3.2019 09:00 0 0 33 14,6
31 22.3.2019 08:30 0 0 34 13,6
32 22.3.2019 08:00 0 0 34,8 12,7
33 22.3.2019 07:30 0 0 36,7 11,4
34 22.3.2019 07:00 0 0 36,6 10,4
35 22.3.2019 06:30 0 0 36,9 9,4
36 22.3.2019 06:00 0 0 38,5 9,1
37 22.3.2019 05:30 0 0 36,8 9,6
38 22.3.2019 05:00 0 0 35,8 10
39 22.3.2019 04:30 0 0 37,7 9,8
40 22.3.2019 04:00 0 0 36,7 10,1
41 22.3.2019 03:30 0 0 35,9 10,3
42 22.3.2019 03:00 0 0 38,7 9,7
43 22.3.2019 02:30 0 0 37,8 10,1
44 22.3.2019 02:00 0 0 38,5 10,2
45 22.3.2019 01:30 0 0 40 9,9
46 22.3.2019 01:00 0 0 40,6 9,8
47 22.3.2019 00:30 0 0 39,9 10,2
48 22.3.2019 00:00 0 0 40,3 10,3
© 2011 Ministrstvo za kmetijstvo, gozdarstvo in prehrano. Vse pravice pridržane.